Tracking 35275 objects as of 9-Sep-2026
HD Live streaming from Space Station
objects crossing your sky now

STARLINK-34214

Track STARLINK-34214 now!
10-day predictions
STARLINK-34214 is classified as:


NORAD ID: 64190
Int'l Code: 2025-113W
Launch date: May 28, 2025
Source: United States (US)
Launch site: AIR FORCE EASTERN TEST RANGE (AFETR)
Your satellite tracking list
Your tracking list is empty




NASA's NSSDC Master Catalog

Two Line Element Set (TLE):
1 64190U 25113W   26251.21994988  .00030516  00000-0  91021-3 0  9999
2 64190  53.1596 323.1300 0001295  82.1623 277.9527 15.34414584 73011
Source of the keplerian elements: AFSPC